#timestamp,LO_Frequency,Hit,StdDev 
1545202815.7,286046998.6,N
1545202835.5,286046998.9,N
1545202855.4,286046998.8,N
1545202875.2,286046998.9,N
1545202895.0,286046998.3,N
1545202895.9,286046998.3,N
1545202915.8,286047000.5,N
1545202935.6,286046998.6,N
1545202955.4,286046998.4,N
1545202975.3,286047001.1,N
1545202995.1,286047000.4,N
1545203015.9,286047000.7,N
1545203035.7,286047000.9,N
1545203055.5,286047000.0,N
1545203075.4,286047000.5,N
1545203095.2,286047001.0,N
1545203115.0,286047000.5,N
1545203116.0,286047000.5,N
1545203135.8,286046998.2,N
1545203155.6,286046998.5,N
1545203175.5,286046998.4,N
1545203195.3,286047000.8,N
1545203215.1,286047001.0,N
1545203235.9,286047000.8,N
1545203255.7,286046999.8,N
1545203275.6,286047000.8,N
1545203295.4,286047001.2,N
1545203315.2,286047000.6,N
1545203335.1,286047000.5,N
1545203336.0,286047000.5,N
1545203355.8,286047000.8,N
1545203375.7,286046999.9,N
1545203395.5,286047004.0,Y
1545203415.3,286047004.1,P
1545203435.2,286047004.4,N
1545203455.0,286047004.1,N
1545203455.9,286047004.1,N
1545203475.7,286047004.3,N
1545203495.6,286047004.4,N
1545203515.4,286047004.1,N
1545203535.3,286047002.9,N
1545203555.1,286047003.1,N
1545203556.0,286047003.1,N
1545203575.8,286047001.7,N
1545203595.7,286047000.3,N
1545203615.5,286047002.1,N
1545203635.3,286047001.5,N
1545203655.2,286047002.5,N
1545203675.0,286047002.0,N
1545203695.4,286047002.1,N
1545203715.3,286047002.4,N
1545203735.1,286047001.0,N
1545203736.0,286047001.0,N
1545203755.8,286047002.7,N
1545203775.7,286047001.0,N
1545203795.5,286046999.7,N
1545203815.3,286047000.3,N
1545203835.2,286047000.6,N
1545203855.0,286047002.6,N
1545203855.9,286047002.6,N
1545203875.8,286047000.1,N
1545203895.6,286046999.8,N
1545203915.4,286047000.8,N
1545203935.3,286047000.0,N
1545203955.1,286047002.6,N
1545203975.9,286047001.9,N
1545203995.7,286047001.3,N
1545204015.5,286047001.6,N
1545204035.4,286047003.7,Y
1545204055.2,286047002.8,P
1545204075.0,286047000.9,N
1545204075.9,286047000.9,N
1545204095.8,286047000.2,N
1545204115.6,286046999.9,N
1545204135.5,286047002.5,N
1545204155.3,286046999.7,N
1545204175.1,286047000.2,N
1545204195.9,286047002.1,N
1545204215.7,286047002.4,N
1545204235.5,286046999.8,N
1545204255.4,286047002.7,N
1545204275.2,286047000.8,N
1545204295.1,286047001.1,N
1545204315.5,286047000.2,N
1545204335.3,286047000.4,N
1545204355.2,286046999.8,N
1545204375.0,286047002.4,N
1545204375.9,286047002.4,N
1545204395.8,286047002.0,N
1545204415.6,286047000.1,N
1545204435.4,286047002.3,N
1545204455.3,286047002.1,N
1545204475.1,286047002.8,N
1545204495.8,286046999.8,N
1545204515.7,286047002.5,N
1545204535.5,286047001.9,N
1545204555.4,286047002.2,N
1545204575.2,286047000.9,N
1545204595.0,286047000.2,N
1545204626.0,286046998.6,E
1545204635.9,286047000.9,N
1545204655.7,286047000.1,P
1545204675.6,286046999.9,N
1545204695.4,286047001.6,Y
1545204715.2,286047004.2,P
1545204735.2,286047001.8,N
1545204755.1,286047002.1,N
1545204756.0,286047002.1,N
1545204775.8,286047000.5,N
1545204795.3,286047002.4,N
1545204815.1,286047000.3,N
1545204816.0,286047000.3,N
1545204835.8,286047002.7,N
1545204855.7,286047002.2,N
1545204875.5,286047002.0,N
1545204895.4,286047002.0,N
1545204915.2,286047001.7,N
1545204935.0,286047001.5,N
1545204935.9,286047001.5,N
1545204955.8,286047001.7,N
1545204975.6,286047003.2,Y
1545204995.5,286047002.8,P
1545205015.3,286047001.7,P
1545205035.1,286047003.6,P
1545205055.9,286047004.1,Y
1545205075.7,286046998.1,P
1545205095.5,286047001.1,N
1545205115.4,286046998.2,N
1545205135.2,286046998.3,N
1545205155.1,286046999.5,N
1545205156.0,286046999.5,N
1545205175.8,286046996.6,N
1545205195.6,286046999.1,N
1545205215.5,286046999.6,N
1545205235.3,286046998.7,N
1545205255.2,286046999.5,N
1545205275.9,286046998.8,N
1545205295.7,286046999.1,N
1545205315.6,286046998.2,N
1545205335.4,286046999.0,N
1545205355.2,286046999.1,N
1545205375.1,286046998.8,N
1545205376.0,286046998.8,N
1545205395.8,286046999.4,N
1545205415.7,286046997.1,N
1545205435.5,286046996.6,N
1545205455.3,286046998.0,N
1545205475.2,286046996.9,N
1545205495.0,286046996.5,N
1545205495.9,286046996.5,N
1545205515.8,286046997.3,N
1545205535.6,286046997.4,N
1545205555.4,286046997.6,N
1545205575.3,286046997.9,N
1545205595.1,286046999.1,N
1545205615.9,286046996.9,N
1545205635.7,286046999.1,N
1545205655.5,286046999.4,N
1545205675.4,286046997.4,N
1545205695.2,286046996.6,Y
1545205715.0,286047000.5,P
1545205716.0,286047000.5,N
1545205735.8,286047000.6,N
1545205755.6,286047000.2,N
1545205775.5,286046999.8,N
1545205795.3,286046999.9,N
1545205815.1,286047000.5,N
1545205835.9,286047002.7,Y
1545205855.7,286047000.4,P
1545205875.6,286046998.2,P
1545205895.4,286047000.4,N
1545205915.2,286047000.9,N
1545205935.1,286047000.9,N
1545205936.0,286047000.9,N
1545205955.8,286046998.5,N
1545205975.7,286047000.5,N
1545205995.5,286046999.9,N
1545206015.3,286047000.3,N
1545206035.2,286047002.7,Y
1545206055.0,286047002.4,P
1545206055.9,286047002.4,N
1545206075.8,286047002.4,N
1545206095.6,286047000.9,N
1545206115.4,286047000.7,N
1545206135.3,286047000.1,N
1545206155.1,286047000.4,N
1545206175.9,286046998.2,N
1545206195.7,286047000.0,N
1545206215.5,286046998.5,N
1545206235.4,286047000.3,N
1545206255.2,286046998.3,N
1545206275.1,286047000.9,N
1545206276.0,286047000.9,N
1545206295.8,286047000.0,N
1545206315.6,286047002.6,N
1545206335.5,286047002.7,N
1545206355.3,286047000.6,N
1545206375.1,286047000.9,N
1545206395.9,286047000.9,N
